Thomasville, GA

1:49 AM EDT on September 27, 2016 (GMT -0400)
Thomasville Municipal

Weather History for KTVI - January, 2014

Change the Weather History Date:

Saturday, January 4, 2014

  Actual Average (KVLD) Record (KVLD)
Temperature  
Mean Temperature 44 °F 50 °F  
Max Temperature 57 °F 62 °F 73 °F (2015)
Min Temperature 30 °F 39 °F 41 °F (2016)
Degree Days  
Heating Degree Days 22 15  
Month to date heating degree days 60  
Since 1 July heating degree days 673  
Moisture  
Dew Point 35 °F    
Average Humidity 71    
Maximum Humidity 87    
Minimum Humidity 58    
Precipitation  
Precipitation 0.00 in 0.23 in 0.00 in (2016)
Month to date precipitation 0.96  
Year to date precipitation 0.96  
Sea Level Pressure  
Sea Level Pressure 30.27 in    
Wind  
Wind Speed 6 mph (ENE)    
Max Wind Speed 13 mph    
Max Gust Speed 18 mph    
Visibility 10 miles    
Events      
T = Trace of Precipitation, MM = Missing Value Source: NWS Daily Summary

Daily Weather History Graph

Daily Weather History Graph

Search for Another Location

Airport or City:

Trip Planner

Search our weather history database for the weather conditions in past years. The results will help you decide how hot, cold, wet, or windy it might be!

Date:

Astronomy

Jan. 04, 2014 Rise Set
Actual Time 7:34 AM EST 5:47 PM EST
Civil Twilight 7:07 AM EST 6:13 PM EST
Nautical Twilight 6:37 AM EST 6:43 PM EST
Astronomical Twilight 6:08 AM EST 7:13 PM EST
Moon 9:55 AM EST (1/4) 9:47 PM EST (1/4)
Length of Visible Light 11h 06m
Length of Day
10h 13m
Waxing Crescent, 15% of the Moon is Illuminated
Jan 4
Waxing Crescent
Jan 7
First Quarter
Jan 15
Full
Jan 24
Last Quarter
Jan 30
New

Hourly Weather History & Observations

Time (EST) Temp. Windchill Dew Point Humidity Pressure Visibility Wind Dir Wind Speed Gust Speed Precip Events Conditions
12:15 AM 32.0 °F - 24.8 °F 75% 30.37 in 10.0 mi Calm Calm - N/A   Clear
12:35 AM 32.0 °F 28.7 °F 23.0 °F 69% 30.36 in 10.0 mi NNE 3.5 mph - N/A   Clear
12:55 AM 30.2 °F 25.4 °F 23.0 °F 75% 30.35 in 10.0 mi NE 4.6 mph - N/A   Clear
1:15 AM 32.0 °F 28.7 °F 23.0 °F 69% 30.35 in 10.0 mi NE 3.5 mph - N/A   Clear
1:35 AM 30.2 °F 25.4 °F 23.0 °F 75% 30.35 in 10.0 mi NNE 4.6 mph - N/A   Clear
1:55 AM 30.2 °F 25.4 °F 24.8 °F 80% 30.34 in 10.0 mi NNE 4.6 mph - N/A   Clear
2:15 AM 30.2 °F 24.3 °F 24.8 °F 80% 30.34 in 7.0 mi NE 5.8 mph - N/A   Clear
2:35 AM 30.2 °F 24.3 °F 24.8 °F 80% 30.34 in 10.0 mi NE 5.8 mph - N/A   Clear
2:55 AM 30.2 °F 24.3 °F 23.0 °F 75% 30.34 in 10.0 mi NE 5.8 mph - N/A   Scattered Clouds
3:15 AM 32.0 °F 25.6 °F 23.0 °F 69% 30.32 in 10.0 mi NE 6.9 mph - N/A   Scattered Clouds
3:35 AM 32.0 °F 24.8 °F 23.0 °F 69% 30.32 in 10.0 mi NE 8.1 mph - N/A   Clear
3:55 AM 32.0 °F 25.6 °F 23.0 °F 69% 30.32 in 10.0 mi NE 6.9 mph - N/A   Clear
4:15 AM 32.0 °F 24.8 °F 23.0 °F 69% 30.32 in 10.0 mi ENE 8.1 mph - N/A   Clear
4:35 AM 32.0 °F 24.8 °F 23.0 °F 69% 30.31 in 10.0 mi ENE 8.1 mph - N/A   Clear
4:55 AM 32.0 °F 24.2 °F 23.0 °F 69% 30.30 in 10.0 mi ENE 9.2 mph - N/A   Clear
5:15 AM 32.0 °F 25.6 °F 23.0 °F 69% 30.31 in 10.0 mi ENE 6.9 mph - N/A   Clear
5:35 AM 32.0 °F 26.4 °F 23.0 °F 69% 30.31 in 10.0 mi ENE 5.8 mph - N/A   Clear
5:55 AM 32.0 °F 25.6 °F 23.0 °F 69% 30.31 in 10.0 mi NE 6.9 mph - N/A   Clear
6:15 AM 32.0 °F 26.4 °F 23.0 °F 69% 30.32 in 10.0 mi ENE 5.8 mph - N/A   Clear
6:35 AM 32.0 °F 26.4 °F 23.0 °F 69% 30.32 in 10.0 mi ENE 5.8 mph - N/A   Clear
6:55 AM 32.0 °F 26.4 °F 24.8 °F 75% 30.32 in 10.0 mi ENE 5.8 mph - N/A   Clear
7:15 AM 32.0 °F 26.4 °F 23.0 °F 69% 30.32 in 10.0 mi ENE 5.8 mph - N/A   Clear
7:35 AM 32.0 °F 24.8 °F 24.8 °F 75% 30.32 in 10.0 mi ENE 8.1 mph - N/A   Mostly Cloudy
7:55 AM 32.0 °F 24.8 °F 26.6 °F 80% 30.32 in 10.0 mi ENE 8.1 mph - N/A   Overcast
8:15 AM 33.8 °F 26.4 °F 26.6 °F 75% 30.33 in 10.0 mi East 9.2 mph - N/A   Overcast
8:35 AM 35.6 °F 28.6 °F 28.4 °F 75% 30.33 in 10.0 mi ENE 9.2 mph - N/A   Overcast
8:55 AM 37.4 °F 31.4 °F 30.2 °F 75% 30.34 in 10.0 mi ENE 8.1 mph - N/A   Mostly Cloudy
9:15 AM 39.2 °F 31.6 °F 32.0 °F 75% 30.33 in 10.0 mi ENE 12.7 mph 18.4 mph N/A   Scattered Clouds
9:35 AM 41.0 °F 34.3 °F 32.0 °F 70% 30.34 in 10.0 mi ENE 11.5 mph - N/A   Clear
9:55 AM 42.8 °F 37.5 °F 32.0 °F 66% 30.35 in 7.0 mi ENE 9.2 mph 17.3 mph N/A   Clear
10:15 AM 42.8 °F 37.5 °F 33.8 °F 70% 30.35 in 7.0 mi ENE 9.2 mph - N/A   Clear
10:35 AM 44.6 °F 40.2 °F 33.8 °F 66% 30.35 in 10.0 mi ENE 8.1 mph - N/A   Scattered Clouds
10:55 AM 44.6 °F 39.2 °F 35.6 °F 71% 30.33 in 10.0 mi ENE 10.4 mph - N/A   Clear
11:15 AM 46.4 °F 41.9 °F 35.6 °F 66% 30.33 in 10.0 mi East 9.2 mph - N/A   Clear
11:35 AM 46.4 °F 41.9 °F 35.6 °F 66% 30.30 in 10.0 mi ENE 9.2 mph - N/A   Clear
11:55 AM 50.0 °F - 37.4 °F 62% 30.30 in 10.0 mi East 6.9 mph - N/A   Clear
12:15 PM 50.0 °F - 37.4 °F 62% 30.27 in 10.0 mi NE 8.1 mph - N/A   Clear
12:35 PM 51.8 °F - 39.2 °F 62% 30.26 in 10.0 mi ENE 5.8 mph - N/A   Clear
12:55 PM 51.8 °F - 39.2 °F 62% 30.25 in 7.0 mi ENE 6.9 mph - N/A   Clear
1:15 PM 53.6 °F - 41.0 °F 62% 30.24 in 7.0 mi East 6.9 mph - N/A   Clear
1:35 PM 53.6 °F - 41.0 °F 62% 30.23 in 10.0 mi ENE 6.9 mph - N/A   Clear
1:55 PM 55.4 °F - 41.0 °F 58% 30.23 in 10.0 mi NNE 4.6 mph - N/A   Clear
2:15 PM 55.4 °F - 42.8 °F 63% 30.22 in 10.0 mi East 5.8 mph - N/A   Clear
2:35 PM 55.4 °F - 42.8 °F 63% 30.22 in 10.0 mi East 8.1 mph - N/A   Scattered Clouds
3:15 PM 57.2 °F - 42.8 °F 59% 30.21 in 10.0 mi ENE 6.9 mph - N/A   Scattered Clouds
3:35 PM 55.4 °F - 42.8 °F 63% 30.21 in 10.0 mi ENE 6.9 mph - N/A   Scattered Clouds
3:55 PM 55.4 °F - 42.8 °F 63% 30.20 in 10.0 mi ENE 8.1 mph - N/A   Scattered Clouds
4:15 PM 55.4 °F - 42.8 °F 63% 30.20 in 10.0 mi ENE 9.2 mph - N/A   Clear
4:35 PM 55.4 °F - 44.6 °F 67% 30.20 in 10.0 mi ENE 8.1 mph - N/A   Clear
4:55 PM 55.4 °F - 44.6 °F 67% 30.19 in 10.0 mi ENE 8.1 mph - N/A   Clear
5:15 PM 53.6 °F - 44.6 °F 72% 30.20 in 7.0 mi East 5.8 mph - N/A   Clear
5:35 PM 53.6 °F - 44.6 °F 72% 30.21 in 10.0 mi ENE 4.6 mph - N/A   Scattered Clouds
5:55 PM 51.8 °F - 44.6 °F 76% 30.21 in 7.0 mi NE 5.8 mph - N/A   Overcast
6:15 PM 51.8 °F - 44.6 °F 76% 30.21 in 10.0 mi NE 5.8 mph - N/A   Scattered Clouds
6:35 PM 50.0 °F - 42.8 °F 76% 30.21 in 10.0 mi ENE 6.9 mph - N/A   Clear
6:55 PM 50.0 °F - 42.8 °F 76% 30.21 in 10.0 mi ENE 4.6 mph - N/A   Scattered Clouds
7:15 PM 50.0 °F - 42.8 °F 76% 30.22 in 10.0 mi East 5.8 mph - N/A   Scattered Clouds
7:35 PM 50.0 °F - 42.8 °F 76% 30.22 in 10.0 mi East 4.6 mph - N/A   Scattered Clouds
7:55 PM 50.0 °F - 42.8 °F 76% 30.21 in 10.0 mi East 5.8 mph - N/A   Mostly Cloudy
8:15 PM 50.0 °F - 42.8 °F 76% 30.20 in 10.0 mi ENE 5.8 mph - N/A   Overcast
8:35 PM 50.0 °F - 42.8 °F 76% 30.21 in 10.0 mi East 6.9 mph - N/A   Mostly Cloudy
8:55 PM 50.0 °F - 42.8 °F 76% 30.21 in 10.0 mi ENE 5.8 mph - N/A   Overcast
9:15 PM 50.0 °F - 42.8 °F 76% 30.19 in 10.0 mi ENE 8.1 mph - N/A   Overcast
9:35 PM 50.0 °F - 42.8 °F 76% 30.19 in 10.0 mi ENE 5.8 mph - N/A   Overcast
9:55 PM 50.0 °F - 42.8 °F 76% 30.18 in 10.0 mi East 5.8 mph - N/A   Overcast
10:15 PM 50.0 °F - 42.8 °F 76% 30.18 in 10.0 mi East 6.9 mph - N/A   Overcast
10:35 PM 50.0 °F - 42.8 °F 76% 30.17 in 10.0 mi East 5.8 mph - N/A   Overcast
10:55 PM 48.2 °F - 42.8 °F 82% 30.16 in 10.0 mi East 4.6 mph - N/A   Overcast
11:15 PM 48.2 °F - 42.8 °F 82% 30.16 in 10.0 mi East 4.6 mph - N/A   Overcast
11:35 PM 50.0 °F - 44.6 °F 82% 30.14 in 10.0 mi East 5.8 mph - N/A   Overcast
11:55 PM 48.2 °F - 44.6 °F 87% 30.14 in 10.0 mi East 5.8 mph - N/A   Overcast